UAL407 KEWR-KDEN

Flight info

Callsign UAL407
Flight time N/A
Altitude 32000
Route NEWEL J60 DJB CPONE JOT/N0453F340 J60 IOW OBH BRWRY LAWGR4
Aircraft B738/M-SDE2E3FGHIRWXY/LB1

Departure

Time 2026-05-04 23:31
Airport Newark Liberty International Airport (KEWR)

Arrival

Time N/A
Airport Denver International Airport (KDEN)
Time Latitude Longitude Altitude Speed Heading
2026-05-04 22:52 40.69652 -74.17533 21 ft 0 kts 310°
2026-05-04 23:21 40.69649 -74.17529 22 ft 3 kts 309°
2026-05-04 23:21 40.69637 -74.17507 21 ft 3 kts 309°
2026-05-04 23:21 40.69623 -74.17487 21 ft 4 kts
2026-05-04 23:21 40.69600 -74.17496 21 ft 4 kts 31°
2026-05-04 23:22 40.69584 -74.17513 21 ft 0 kts 45°
2026-05-04 23:25 40.69590 -74.17507 21 ft 6 kts 39°
2026-05-04 23:25 40.69642 -74.17459 24 ft 9 kts 37°
2026-05-04 23:26 40.69684 -74.17411 21 ft 7 kts 39°
2026-05-04 23:26 40.69725 -74.17368 21 ft 9 kts 37°
2026-05-04 23:26 40.69782 -74.17308 21 ft 11 kts 42°
2026-05-04 23:26 40.69833 -74.17239 23 ft 10 kts 60°
2026-05-04 23:27 40.69808 -74.17158 21 ft 10 kts 138°
2026-05-04 23:27 40.69753 -74.17102 21 ft 10 kts 146°
2026-05-04 23:27 40.69694 -74.17055 21 ft 10 kts 153°
2026-05-04 23:27 40.69637 -74.17014 21 ft 9 kts 130°
2026-05-04 23:28 40.69636 -74.16932 21 ft 9 kts 72°
2026-05-04 23:28 40.69660 -74.16852 21 ft 10 kts 69°
2026-05-04 23:28 40.69699 -74.16743 21 ft 15 kts 45°
2026-05-04 23:28 40.69787 -74.16679 20 ft 14 kts 24°
2026-05-04 23:29 40.69872 -74.16626 21 ft 11 kts 26°
2026-05-04 23:29 40.69942 -74.16579 21 ft 11 kts 26°
2026-05-04 23:29 40.70011 -74.16535 20 ft 11 kts 26°
2026-05-04 23:29 40.70058 -74.16498 21 ft 7 kts 51°
2026-05-04 23:30 40.70063 -74.16485 20 ft 0 kts 72°
2026-05-04 23:30 40.70064 -74.16469 20 ft 6 kts 87°
2026-05-04 23:30 40.70034 -74.16389 18 ft 15 kts 154°
2026-05-04 23:31 40.69887 -74.16454 19 ft 46 kts 205°
2026-05-04 23:31 40.69351 -74.16794 22 ft 124 kts 206°
2026-05-04 23:31 40.68377 -74.17411 179 ft 175 kts 205°
2026-05-04 23:31 40.67294 -74.18103 1157 ft 171 kts 207°
2026-05-04 23:32 40.66158 -74.18861 1764 ft 198 kts 206°
2026-05-04 23:32 40.64850 -74.19722 2078 ft 220 kts 208°
2026-05-04 23:32 40.63609 -74.20955 2375 ft 227 kts 231°
2026-05-04 23:32 40.62936 -74.22809 2682 ft 229 kts 260°
2026-05-04 23:33 40.62992 -74.24879 3048 ft 230 kts 288°
2026-05-04 23:33 40.63755 -74.26790 3266 ft 239 kts 296°
2026-05-04 23:33 40.64305 -74.28867 3655 ft 242 kts 287°
2026-05-04 23:33 40.64803 -74.30978 4118 ft 244 kts 287°
2026-05-04 23:34 40.65312 -74.33107 4708 ft 243 kts 287°
2026-05-04 23:34 40.65821 -74.35227 5283 ft 242 kts 288°
2026-05-04 23:34 40.66331 -74.37341 5871 ft 241 kts 288°
2026-05-04 23:34 40.66837 -74.39441 6422 ft 240 kts 288°
2026-05-04 23:35 40.67349 -74.41558 6774 ft 250 kts 288°
2026-05-04 23:35 40.67884 -74.43773 7179 ft 257 kts 288°
2026-05-04 23:35 40.68659 -74.45928 7546 ft 266 kts 309°
2026-05-04 23:35 40.69958 -74.47719 7972 ft 274 kts 316°
2026-05-04 23:36 40.71374 -74.49461 8364 ft 284 kts 317°
2026-05-04 23:36 40.72850 -74.51249 8752 ft 290 kts 317°
2026-05-04 23:36 40.74323 -74.53024 9114 ft 289 kts 317°
2026-05-04 23:36 40.75811 -74.54814 9486 ft 290 kts 317°
2026-05-04 23:37 40.77281 -74.56670 9875 ft 293 kts 307°
2026-05-04 23:37 40.78068 -74.59131 10430 ft 296 kts 276°
2026-05-04 23:37 40.78175 -74.61852 11081 ft 296 kts 272°
2026-05-04 23:37 40.78333 -74.64550 11668 ft 300 kts 277°
2026-05-04 23:38 40.78663 -74.67287 12267 ft 303 kts 281°
2026-05-04 23:38 40.79147 -74.70043 12619 ft 317 kts 285°
2026-05-04 23:38 40.79778 -74.72933 12769 ft 335 kts 287°
2026-05-04 23:38 40.80516 -74.75905 13190 ft 344 kts 289°
2026-05-04 23:39 40.81308 -74.78874 13754 ft 348 kts 290°
2026-05-04 23:39 40.82145 -74.81886 14388 ft 350 kts 290°
2026-05-04 23:39 40.82995 -74.84888 15030 ft 352 kts 290°
2026-05-04 23:39 40.83872 -74.87954 15639 ft 356 kts 290°
2026-05-04 23:40 40.84740 -74.90981 16199 ft 359 kts 291°
2026-05-04 23:40 40.85631 -74.94085 16782 ft 362 kts 290°
2026-05-04 23:40 40.86531 -74.97224 17004 ft 363 kts 290°
2026-05-04 23:40 40.87425 -75.00347 17020 ft 363 kts 290°
2026-05-04 23:41 40.88312 -75.03446 17022 ft 364 kts 290°
2026-05-04 23:41 40.89209 -75.06588 17028 ft 364 kts 290°
2026-05-04 23:41 40.90101 -75.09715 17027 ft 363 kts 290°
2026-05-04 23:41 40.90996 -75.12856 17039 ft 365 kts 290°
2026-05-04 23:42 40.91611 -75.16124 17126 ft 379 kts 276°
2026-05-04 23:42 40.91576 -75.19659 17425 ft 389 kts 261°
2026-05-04 23:42 40.90903 -75.23145 17910 ft 392 kts 252°
2026-05-04 23:42 40.90048 -75.26585 18440 ft 395 kts 251°
2026-05-04 23:43 40.89173 -75.30039 18962 ft 397 kts 252°
2026-05-04 23:43 40.88315 -75.33531 19492 ft 399 kts 252°
2026-05-04 23:43 40.87472 -75.37048 19965 ft 402 kts 252°
2026-05-04 23:43 40.86636 -75.40572 20425 ft 405 kts 252°
2026-05-04 23:44 40.85792 -75.44146 20880 ft 408 kts 252°
2026-05-04 23:44 40.84941 -75.47747 21327 ft 411 kts 252°
2026-05-04 23:44 40.84084 -75.51371 21759 ft 414 kts 252°
2026-05-04 23:44 40.83222 -75.55010 22176 ft 416 kts 252°
2026-05-04 23:45 40.82360 -75.58640 22547 ft 420 kts 252°
2026-05-04 23:45 40.81478 -75.62346 22927 ft 423 kts 252°
2026-05-04 23:45 40.80593 -75.66063 23313 ft 425 kts 252°
2026-05-04 23:45 40.79700 -75.69800 23705 ft 427 kts 252°
2026-05-04 23:46 40.78807 -75.73530 24056 ft 430 kts 252°
2026-05-04 23:46 40.77903 -75.77306 24380 ft 433 kts 252°
2026-05-04 23:46 40.76989 -75.81118 24691 ft 436 kts 252°
2026-05-04 23:46 40.76066 -75.84961 24998 ft 439 kts 252°
2026-05-04 23:47 40.75138 -75.88817 25299 ft 442 kts 252°
2026-05-04 23:47 40.74213 -75.92651 25592 ft 444 kts 252°
2026-05-04 23:47 40.73274 -75.96541 25880 ft 446 kts 252°
2026-05-04 23:47 40.72326 -76.00464 26180 ft 448 kts 252°
2026-05-04 23:48 40.71371 -76.04408 26465 ft 450 kts 252°
2026-05-04 23:48 40.70425 -76.08304 26753 ft 452 kts 252°
2026-05-04 23:48 40.69463 -76.12264 27050 ft 453 kts 252°
2026-05-04 23:48 40.68496 -76.16235 27356 ft 454 kts 252°
2026-05-04 23:49 40.67620 -76.20188 27635 ft 455 kts 258°
2026-05-04 23:49 40.67204 -76.24315 27979 ft 454 kts 267°
2026-05-04 23:49 40.67243 -76.28477 28352 ft 453 kts 276°
2026-05-04 23:49 40.67746 -76.32572 28726 ft 452 kts 281°
2026-05-04 23:50 40.68373 -76.36631 29060 ft 452 kts 282°
2026-05-04 23:50 40.69021 -76.40686 29394 ft 451 kts 282°
2026-05-04 23:50 40.69656 -76.44677 29766 ft 449 kts 282°
2026-05-04 23:50 40.70286 -76.48722 30080 ft 449 kts 281°
2026-05-04 23:51 40.70902 -76.52763 30397 ft 449 kts 281°
2026-05-04 23:51 40.71511 -76.56816 30690 ft 449 kts 281°
2026-05-04 23:51 40.72111 -76.60858 30970 ft 449 kts 281°
2026-05-04 23:51 40.72706 -76.64900 31277 ft 448 kts 281°
2026-05-04 23:52 40.73298 -76.68929 31591 ft 447 kts 281°
2026-05-04 23:52 40.73881 -76.72905 31814 ft 448 kts 281°
2026-05-04 23:52 40.75066 -76.81014 31797 ft 451 kts 281°
2026-05-04 23:53 40.76241 -76.89094 31796 ft 444 kts 281°
2026-05-04 23:53 40.77398 -76.97086 31807 ft 445 kts 281°
2026-05-04 23:54 40.78563 -77.05174 31806 ft 448 kts 281°
2026-05-04 23:54 40.79715 -77.13207 31791 ft 446 kts 281°
2026-05-04 23:55 40.80861 -77.21245 31797 ft 444 kts 281°
2026-05-04 23:56 40.82565 -77.33286 31810 ft 450 kts 281°
2026-05-04 23:56 40.83521 -77.40067 31799 ft 451 kts 280°
2026-05-04 23:57 40.84659 -77.48225 31800 ft 452 kts 280°
2026-05-04 23:57 40.85775 -77.56360 31798 ft 451 kts 280°
2026-05-04 23:58 40.86894 -77.64537 31799 ft 451 kts 280°
2026-05-04 23:58 40.88002 -77.72671 31801 ft 450 kts 280°
2026-05-04 23:59 40.89108 -77.80803 31800 ft 449 kts 280°
2026-05-04 23:59 40.90208 -77.88933 31801 ft 447 kts 280°
2026-05-05 00:00 40.91291 -77.96981 31795 ft 446 kts 280°
2026-05-05 00:00 40.92347 -78.05086 31803 ft 446 kts 279°
2026-05-05 00:01 40.93344 -78.13118 31801 ft 446 kts 279°
2026-05-05 00:01 40.94344 -78.21202 31803 ft 446 kts 279°
2026-05-05 00:02 40.95349 -78.29328 31799 ft 446 kts 279°
2026-05-05 00:02 40.96338 -78.37374 31798 ft 445 kts 279°
2026-05-05 00:03 40.97330 -78.45487 31801 ft 445 kts 279°
2026-05-05 00:03 40.98303 -78.53579 31797 ft 444 kts 279°
2026-05-05 00:04 40.99259 -78.61609 31803 ft 443 kts 279°
2026-05-05 00:04 41.00215 -78.69679 31802 ft 443 kts 279°
2026-05-05 00:05 41.01160 -78.77694 31806 ft 443 kts 279°
2026-05-05 00:05 41.02106 -78.85768 31805 ft 443 kts 279°
2026-05-05 00:06 41.03044 -78.93837 31803 ft 443 kts 278°
2026-05-05 00:06 41.03981 -79.01933 31805 ft 443 kts 278°
2026-05-05 00:07 41.04907 -79.09986 31800 ft 443 kts 278°
2026-05-05 00:07 41.05831 -79.18081 31800 ft 444 kts 278°
2026-05-05 00:08 41.06749 -79.26114 31803 ft 444 kts 279°
2026-05-05 00:08 41.07669 -79.34222 31799 ft 444 kts 278°
2026-05-05 00:09 41.08571 -79.42286 31800 ft 444 kts 278°
2026-05-05 00:09 41.09471 -79.50391 31799 ft 443 kts 278°
2026-05-05 00:10 41.10367 -79.58503 31799 ft 443 kts 278°
2026-05-05 00:10 41.11250 -79.66552 31801 ft 443 kts 278°
2026-05-05 00:11 41.12129 -79.74662 31802 ft 443 kts 278°
2026-05-05 00:11 41.13002 -79.82719 31799 ft 443 kts 278°
2026-05-05 00:12 41.13875 -79.90831 31803 ft 443 kts 278°
2026-05-05 00:12 41.14736 -79.98893 31803 ft 443 kts 278°
2026-05-05 00:13 41.15595 -80.06992 31799 ft 443 kts 278°
2026-05-05 00:13 41.16453 -80.15119 31800 ft 443 kts 278°
2026-05-05 00:14 41.17298 -80.23185 31805 ft 443 kts 278°
2026-05-05 00:14 41.18137 -80.31260 31801 ft 443 kts 278°
2026-05-05 00:15 41.18976 -80.39385 31797 ft 443 kts 278°
2026-05-05 00:15 41.19812 -80.47509 31801 ft 443 kts 278°
2026-05-05 00:16 41.20641 -80.55588 31803 ft 444 kts 278°
2026-05-05 00:16 41.21472 -80.63739 31802 ft 445 kts 278°
2026-05-05 00:17 41.22292 -80.71861 31799 ft 445 kts 278°
2026-05-05 00:17 41.23111 -80.80030 31800 ft 446 kts 277°
2026-05-05 00:18 41.23924 -80.88213 31801 ft 446 kts 277°
2026-05-05 00:18 41.24727 -80.96344 31804 ft 446 kts 277°
2026-05-05 00:19 41.25529 -81.04527 31799 ft 446 kts 277°
2026-05-05 00:19 41.26327 -81.12723 31799 ft 446 kts 277°
2026-05-05 00:20 41.27111 -81.20846 31798 ft 445 kts 277°
2026-05-05 00:20 41.27893 -81.29015 31797 ft 445 kts 277°
2026-05-05 00:21 41.28670 -81.37187 31801 ft 444 kts 277°
2026-05-05 00:21 41.29434 -81.45294 31799 ft 444 kts 277°
2026-05-05 00:22 41.30200 -81.53467 31720 ft 445 kts 277°
2026-05-05 00:22 41.30960 -81.61660 31713 ft 445 kts 277°
2026-05-05 00:23 41.31702 -81.69817 31701 ft 445 kts 277°
2026-05-05 00:23 41.32438 -81.77996 31710 ft 444 kts 277°
2026-05-05 00:24 41.33166 -81.86139 31706 ft 444 kts 277°
2026-05-05 00:24 41.33888 -81.94279 31708 ft 444 kts 277°
2026-05-05 00:25 41.34607 -82.02460 31707 ft 444 kts 277°
2026-05-05 00:25 41.35322 -82.10653 31707 ft 445 kts 277°
2026-05-05 00:26 41.36005 -82.18789 31706 ft 445 kts 275°
2026-05-05 00:26 41.36510 -82.27014 31708 ft 445 kts 274°
2026-05-05 00:27 41.36957 -82.35203 31707 ft 445 kts 274°
2026-05-05 00:27 41.37415 -82.43438 31708 ft 445 kts 274°
2026-05-05 00:28 41.37882 -82.51682 31707 ft 445 kts 274°
2026-05-05 00:28 41.38346 -82.59877 31707 ft 445 kts 274°
2026-05-05 00:29 41.38805 -82.68085 31705 ft 445 kts 274°
2026-05-05 00:29 41.39259 -82.76306 31709 ft 445 kts 274°
2026-05-05 00:30 41.39708 -82.84558 31708 ft 446 kts 274°
2026-05-05 00:30 41.40148 -82.92754 31707 ft 446 kts 274°
2026-05-05 00:31 41.40587 -83.01023 31707 ft 446 kts 274°
2026-05-05 00:31 41.41018 -83.09281 31707 ft 447 kts 274°
2026-05-05 00:32 41.41442 -83.17495 31707 ft 447 kts 274°
2026-05-05 00:32 41.41862 -83.25755 31707 ft 446 kts 274°
2026-05-05 00:33 41.42277 -83.34034 31707 ft 446 kts 274°
2026-05-05 00:33 41.42682 -83.42249 31707 ft 446 kts 274°
2026-05-05 00:34 41.43085 -83.50513 31707 ft 446 kts 274°
2026-05-05 00:34 41.43478 -83.58725 31707 ft 445 kts 274°
2026-05-05 00:35 41.43868 -83.66980 31707 ft 445 kts 274°
2026-05-05 00:35 41.44252 -83.75223 31707 ft 445 kts 274°
2026-05-05 00:36 41.44630 -83.83480 31707 ft 445 kts 274°
2026-05-05 00:36 41.44999 -83.91672 31707 ft 445 kts 274°
2026-05-05 00:37 41.45365 -83.99925 31707 ft 445 kts 273°
2026-05-05 00:37 41.45723 -84.08114 31707 ft 445 kts 273°
2026-05-05 00:38 41.46077 -84.16370 31707 ft 445 kts 273°
2026-05-05 00:38 41.46426 -84.24624 31707 ft 445 kts 273°
2026-05-05 00:39 41.46766 -84.32822 31707 ft 445 kts 273°
2026-05-05 00:39 41.47101 -84.41039 31707 ft 445 kts 273°
2026-05-05 00:40 41.47432 -84.49315 31707 ft 445 kts 273°
2026-05-05 00:40 41.47703 -84.56196 31707 ft 445 kts 273°
2026-05-05 00:41 41.48075 -84.65793 31707 ft 446 kts 273°
2026-05-05 00:41 41.48336 -84.72670 31707 ft 446 kts 273°
2026-05-05 00:42 41.48638 -84.80788 31706 ft 445 kts 273°
2026-05-05 00:42 41.48940 -84.89041 31709 ft 445 kts 273°
2026-05-05 00:43 41.49234 -84.97237 31708 ft 444 kts 273°
2026-05-05 00:43 41.49525 -85.05508 31705 ft 444 kts 272°
2026-05-05 00:44 41.49807 -85.13688 31706 ft 443 kts 272°
2026-05-05 00:44 41.50084 -85.21910 31706 ft 442 kts 272°
2026-05-05 00:45 41.50354 -85.30073 31707 ft 442 kts 272°
2026-05-05 00:45 41.50620 -85.38298 31707 ft 441 kts 272°
2026-05-05 00:46 41.50877 -85.46454 31707 ft 441 kts 272°
2026-05-05 00:46 41.51129 -85.54604 31707 ft 441 kts 272°
2026-05-05 00:47 41.51376 -85.62810 31708 ft 441 kts 272°
2026-05-05 00:47 41.51616 -85.70968 31705 ft 442 kts 272°
2026-05-05 00:48 41.51852 -85.79164 31709 ft 442 kts 272°
2026-05-05 00:48 41.52080 -85.87336 31707 ft 443 kts 272°
2026-05-05 00:49 41.52305 -85.95590 31707 ft 443 kts 272°
2026-05-05 00:49 41.52523 -86.03785 31689 ft 444 kts 272°
2026-05-05 00:50 41.52692 -86.12060 31619 ft 446 kts 271°
2026-05-05 00:50 41.52831 -86.20309 31613 ft 446 kts 271°
2026-05-05 00:51 41.52968 -86.28595 31614 ft 446 kts 271°
2026-05-05 00:51 41.53103 -86.36907 31616 ft 446 kts 271°
2026-05-05 00:52 41.53233 -86.45135 31612 ft 445 kts 271°
2026-05-05 00:52 41.53358 -86.53421 31613 ft 445 kts 271°
2026-05-05 00:53 41.53477 -86.61693 31613 ft 444 kts 271°
2026-05-05 00:53 41.53590 -86.69937 31616 ft 444 kts 271°
2026-05-05 00:54 41.53696 -86.78153 31613 ft 443 kts 271°
2026-05-05 00:54 41.53797 -86.86391 31613 ft 442 kts 271°
2026-05-05 00:55 41.53891 -86.94554 31612 ft 441 kts 271°
2026-05-05 00:55 41.53979 -87.02759 31613 ft 440 kts 271°
2026-05-05 00:56 41.54061 -87.10890 31611 ft 439 kts 271°
2026-05-05 00:56 41.54137 -87.19010 31614 ft 439 kts 271°
2026-05-05 00:57 41.54208 -87.27176 31617 ft 439 kts 271°
2026-05-05 00:57 41.54273 -87.35291 31615 ft 439 kts 270°
2026-05-05 00:58 41.54332 -87.43453 31615 ft 439 kts 270°
2026-05-05 00:58 41.54385 -87.51581 31610 ft 439 kts 270°
2026-05-05 00:59 41.54433 -87.59741 31613 ft 439 kts 270°
2026-05-05 00:59 41.54475 -87.67880 31615 ft 439 kts 270°
2026-05-05 01:00 41.54511 -87.76039 31615 ft 440 kts 270°
2026-05-05 01:00 41.54542 -87.84216 31615 ft 440 kts 270°
2026-05-05 01:01 41.54566 -87.92375 31616 ft 440 kts 270°
2026-05-05 01:01 41.54585 -88.00565 31611 ft 440 kts 270°
2026-05-05 01:02 41.54598 -88.08706 31616 ft 440 kts 270°
2026-05-05 01:02 41.54604 -88.16865 31690 ft 438 kts 270°
2026-05-05 01:03 41.54606 -88.25007 31701 ft 437 kts 270°
2026-05-05 01:03 41.54604 -88.33076 31709 ft 437 kts 270°
2026-05-05 01:04 41.54644 -88.41206 31707 ft 437 kts 270°
2026-05-05 01:04 41.54720 -88.53366 31706 ft 437 kts 270°
2026-05-05 01:05 41.54757 -88.61502 31708 ft 437 kts 270°
2026-05-05 01:05 41.54785 -88.69636 31706 ft 437 kts 270°
2026-05-05 01:06 41.54806 -88.77762 31707 ft 437 kts 270°
2026-05-05 01:06 41.54821 -88.85137 31675 ft 438 kts 270°
2026-05-05 01:07 41.54832 -88.93252 31620 ft 438 kts 270°
2026-05-05 01:07 41.54838 -89.01393 31611 ft 437 kts 270°
2026-05-05 01:08 41.54838 -89.09517 31611 ft 436 kts 270°
2026-05-05 01:08 41.54831 -89.17616 31612 ft 435 kts 270°
2026-05-05 01:09 41.54819 -89.25637 31613 ft 434 kts 270°
2026-05-05 01:09 41.54803 -89.33650 31614 ft 433 kts 270°
2026-05-05 01:10 41.54779 -89.41716 31614 ft 433 kts 270°
2026-05-05 01:10 41.54748 -89.49767 31612 ft 433 kts 270°
2026-05-05 01:11 41.54711 -89.57834 31614 ft 434 kts 270°
2026-05-05 01:11 41.54668 -89.65868 31616 ft 436 kts 270°
2026-05-05 01:12 41.54619 -89.73996 31614 ft 437 kts 269°
2026-05-05 01:12 41.54565 -89.82075 31615 ft 439 kts 269°
2026-05-05 01:13 41.54504 -89.90264 31615 ft 440 kts 269°
2026-05-05 01:13 41.54438 -89.98394 31614 ft 440 kts 269°
2026-05-05 01:14 41.54365 -90.06599 31613 ft 441 kts 269°
2026-05-05 01:14 41.54288 -90.14731 31611 ft 441 kts 269°
2026-05-05 01:15 41.54203 -90.22936 31615 ft 441 kts 269°
2026-05-05 01:15 41.54114 -90.31089 31614 ft 441 kts 269°
2026-05-05 01:16 41.54018 -90.39274 31614 ft 440 kts 269°
2026-05-05 01:16 41.53917 -90.47460 31614 ft 440 kts 269°
2026-05-05 01:17 41.53810 -90.55632 31613 ft 440 kts 269°